Regional Weather Roundup
Issued by NWS Charleston, SC

Current Version | Previous Version | Graphics & Text | Print | Product List | Glossary On
Versions: 1 2 3 4 5 6 7 8 9 10 11 12 13 14 15 16 17 18 19 20 21 22 23 24 25 26 27 28 29 30 31 32 33 34 35 36 37 38 39 40 41 42 43 44 45 46 47 48 49 50
000 ASUS42 KCHS 250229 RWRCHS REGIONAL WEATHER ROUNDUP NATIONAL WEATHER SERVICE CHARLESTON SC 1000 PM EDT SUN SEP 24 2017 NOTE: "FAIR" INDICATES FEW OR NO CLOUDS BELOW 12,000 FEET WITH NO SIGNIFICANT WEATHER AND/OR OBSTRUCTIONS TO VISIBILITY. NOT ALL STATIONS ARE QUALITY CONTROLLED. USE DATA WITH CAUTION... ESPECIALLY DEWPOINT OBSERVATIONS. SCZ027-030-031-034>040-042>050-250300- ...SOUTHEAST SOUTH CAROLINA... CITY SKY/WX TMP DP RH WIND PRES REMARKS N CHARLESTON CLOUDY 74 71 91 N5 29.94F WATERFRONT PRK N/A 78 73 84 NE6 29.79S JOHNS ISLAND FAIR 75 72 88 CALM 29.95R PINOPOLIS N/A 79 72 78 NE7 29.89S MONCKS CORNER FAIR 72 70 94 CALM 29.95F SUMMERVILLE FAIR 72 70 94 CALM 29.97S BEAUFORT MCAS CLOUDY 77 72 84 N3 29.95S BEAUFORT ARPT FAIR 77 72 83 CALM 29.95R HILTON HEAD IS CLOUDY 79 73 83 NE5 29.95S WALTERBORO PTCLDY 73 68 83 N3 29.96F ALLENDALE NOT AVBL ...SOUTHERN MIDLANDS AND PEE DEE... CITY SKY/WX TMP DP RH WIND PRES REMARKS GEORGETOWN FAIR 73 72 94 N3 29.96S KINGSTREE FAIR 68 68 100 CALM 29.97S ORANGEBURG PTCLDY 73 67 81 CALM 29.97F BARNWELL FAIR 75 70 83 N3 29.97F AIKEN FAIR 72 66 83 CALM 30.03S MANNING FAIR 72 59 64 MISG 29.97S COLUMBIA CLOUDY 79 67 66 NW3 29.98S SUMTER MOCLDY 73 67 80 NE5 29.96S FLORENCE CLOUDY 72 68 87 N3 29.99S MYRTLE BEACH CLOUDY 76 69 79 N7 29.96F N MYRTLE BEACH CLOUDY 75 70 84 N5 29.94F $$ GAZ063-065-086>088-099>101-113>116-118-119-134>141-150-250300- ...SOUTHEAST GEORGIA... CITY SKY/WX TMP DP RH WIND PRES REMARKS SAVANNAH ARPT CLOUDY 75 69 81 N5 29.96R HUNTER AAF NOT AVBL FORT STEWART MOCLDY 73 68 85 N3 29.93S STATESBORO CLOUDY 72 66 81 CALM 29.97S SYLVANIA CLOUDY 72 71 96 CALM 29.98S CLAXTON FAIR 73 70 92 CALM 29.97S ...CSRA...CENTRAL AND FAR SOUTHEAST GEORGIA... CITY SKY/WX TMP DP RH WIND PRES REMARKS THOMSON CLOUDY 72 68 88 CALM 30.05R AUGUSTA-BUSH CLOUDY 72 69 90 CALM 29.98S AUGUSTA-DANIEL MOCLDY 79 67 66 N5 30.00S SWAINSBORO FAIR 72 70 94 CALM 29.99S VIDALIA PTCLDY 75 68 78 NE3 29.97F EASTMAN FAIR 74 60 61 CALM 30.00S HAZLEHURST FAIR 78 60 54 CALM 29.96S ALMA PTCLDY 73 68 84 CALM 29.95S WAYCROSS CLEAR 76 71 83 CALM 29.95S JESUP NOT AVBL BAXLEY FAIR 73 68 83 E5 29.96S BRUNSWICK MOCLDY 73 68 83 CALM 29.95S SAINT SIMONS MOCLDY 78 71 79 NE6 29.94S $$ SCZ027-028-034-036>038-045-046-048>050-GAZ119-141-250300- ...LAKE AND SUPPLEMENTAL COASTAL OBSERVATIONS... STATION/POSITION TIME TEMP WIND PRES WAVE SWELL AIR SEA DIR/SP/G HT/PER HT/PER/DIR (UTC) (F) (DEG/KT/KT) (MB) (FT/S) (FT/S/D) WINYAH BAY NOT AVBL LAKE MURRAY 0120 78 CALM / 3 1014.9R ACE BASIN NERRS 0045 77 CALM 1014.0 FORT PULASKI 0148 60/ 6/ 7 N/A SAPELO ISLAND 0100 77 CALM 1014.0 $$ ANZ835-935-AMZ111-154-330-350-352-354-370-450-454-472-250300- ...C-MAN AND BUOY OBSERVATIONS... STATION/POSITION TIME TEMP WIND PRES WAVE SWELL AIR SEA DIR/SP/G HT/PER HT/PER/DIR (UTC) (F) (DEG/KT/KT) (MB) (FT/S) (FT/S/D) BUOY 41004 0200 80 81 30/ 17/ 23 1012.6 BUOY 41008 0150 80 80 50/ 16/ 17 1013.3R 6/15 3/100/15 FOLLY BEACH CMAN 0200 78 20/ 9/ 10 1014.4F CAPERS NEARSHORE 0108 76 80 30/ 10/ 14 1013.6 FRIPP NEARSHORE 0108 80 50/ 12/ 16 1019.8R STATION/POSITION TIME TEMP WIND PRES WAVE SWELL AIR SEA DIR/SP/G HT/PER HT/PER/DIR (UTC) (F) (DEG/KT/KT) (MB) (FT/S) (FT/S/D) 5E ST. MARYS GA 0200 81 N/A 7/13 3/120/13 FRYING PAN BUOY 0200 80 82 30/ 21/ 27 1012.4 BUOY 41025 0150 75 81 30/ 21/ 27 1013.2F 11/15 10/160/15 CAPE LOOKOUT NC 0200 75 30/ 20/ 25 1013.4F BUOY 41002 0150 80 80 20/ 33/ 43 1002.7F 20/14 10/120/14 BUOY 41010 0150 10/ 17/ 21 1010.6R 13/14 11/14 ST AUGUSTINE FL 0200 80 82 30/ 17/ 19 1013.3R $$

USA.gov is the U.S. government's official web portal to all federal, state and local government web resources and services.